Regional Weather Roundup
Issued by NWS

Home | Current Version | Previous Version | Text Only | Print | Product List | Glossary On
Versions: 1 2 3 4 5 6 7 8 9 10 11 12 13 14 15 16 17 18 19 20 21 22 23 24 25 26 27 28 29 30 31 32 33 34 35 36 37 38 39 40 41 42 43 44 45 46 47 48 49 50
000
ASUS43 KMPX 310901
RWRMN
WEATHER ROUNDUP FOR MINNESOTA
NATIONAL WEATHER SERVICE TWIN CITIES/CHANHASSEN MN
400 AM CDT SUN AUG 31 2014


NOTE: "FAIR" INDICATES FEW OR NO CLOUDS BELOW 12,000 FEET WITH NO
SIGNIFICANT WEATHER AND/OR OBSTRUCTIONS TO VISIBILITY. N/A MEANS
CURRENT SKY AND/OR WEATHER CONDITIONS ARE NOT AVAILABLE.

MNZ060>063-068>070-311000-
   Twin Cities Metro

CITY           SKY/WX    TMP DP  RH WIND       PRES   REMARKS
TWIN CITIES    CLEAR     63  61  93 SE8       29.86F
ST PAUL        CLEAR     62  61  96 E10       29.86F
CRYSTAL        CLEAR     64  60  87 SE8       29.84F
BLAINE         CLEAR     63  63 100 E7        29.85F
LAKEVILLE      MOCLDY    57  57 100 SE3       29.86F
EDEN PRAIRIE   CLEAR     63  61  93 SE7       29.84F
SOUTH ST PAUL  CLEAR     63  61  94 SE3       29.86F
LAKE ELMO      FAIR      59  59 100 E3        29.88F
$$
MNZ001>005-007-008-013>017-022>024-027-028-311000-
   Northwest Minnesota

CITY           SKY/WX    TMP DP  RH WIND       PRES   REMARKS
BEMIDJI        CLOUDY    63  61  94 SE9       29.79F
HALLOCK        CLOUDY    61  57  88 SE8       29.72F
ROSEAU         PTCLDY    61  55  82 SE5       29.78F
WARROAD        CLOUDY    61  57  88 SE6       29.79F
THIEF RVR FALL CLOUDY    61  57  88 SE7       29.74F
CROOKSTON      CLOUDY    61  61 100 SE6       29.73F
FOSSTON        MOCLDY    57  55  94 E3        29.75F
DETROIT LAKES  CLOUDY    63  61  94 SE10      29.75F
MOORHEAD       CLOUDY    63  63 100 SE7       29.72S
PARK RAPIDS    CLOUDY    63  61  93 SE12      29.78F
MAHNOMEN       FAIR      61  60  95 SE9       29.74F
$$
MNZ006-009>011-018-025>026-311000-
   North Central Minnesota

CITY           SKY/WX    TMP DP  RH WIND       PRES   REMARKS
BAUDETTE       CLOUDY    60  57  89 VRB5      29.80F
FLAG ISLAND    CLOUDY    64  61  88 S14       29.78F
INTL FALLS     CLOUDY    58  57  97 SE6       29.84F
WASKISH        CLOUDY    63  61  94 CALM      29.80F
BIG FORK       CLOUDY    63  59  88 SE6       29.85F
LONGVILLE      MOCLDY    63  61  94 SE6       29.82F
GRAND RAPIDS   PTCLDY    61  57  88 SE5       29.86F
CRANE LAKE     CLOUDY    57  55  94 CALM      29.89F
ORR            CLOUDY    59  55  88 SE6       29.85F
COOK           CLOUDY    59  55  88 SE3       29.89F
WALKER         CLOUDY    64  61  92 SE8       29.80F
$$
MNZ012-019>021-037-311000-
   Northeast Minnesota

CITY           SKY/WX    TMP DP  RH WIND       PRES   REMARKS
DULUTH         CLOUDY    60  57  89 E9        29.89F
ELY            CLOUDY    57  54  88 CALM      29.91F
HIBBING        CLOUDY    59  56  89 SE7       29.88F
EVELETH        CLOUDY    57  55  94 CALM      29.90F
DULUTH HARBOR  MOCLDY    61  57  88 SE3       29.91F
TWO HARBORS    HAZE      57  52  82 CALM      29.91S VSB 3/4
SILVER BAY     CLEAR     50  50 100 CALM      29.92S
GRAND MARAIS     N/A     53  52  96 CALM      29.92S
G MARAIS ARPRT FOG       43  39  87 CALM      29.95F VSB 3/4
$$
MNZ029>031-032-039>041-046>048-054>057-064-311000-
   West Central Minnesota

CITY           SKY/WX    TMP DP  RH WIND       PRES   REMARKS
FERGUS FALLS   MOCLDY    63  61  94 SE14      29.73F
WHEATON        CLOUDY    59  57  94 SE13      29.72F
MORRIS         PTCLDY    63  61  94 SE14G20   29.72F FOG
ALEXANDRIA     MOCLDY    62  60  93 SE10      29.79F
ELBOW LAKE     FAIR      60  59  95 SE13      29.74F
WADENA         MOCLDY    61  61 100 SE10      29.77F
GLENWOOD       MOCLDY    63  61  94 SE12      29.79F FOG
APPLETON       PTCLDY    63  61  94 SE12      29.72F
BENSON         MOCLDY    63  61  94 S13G18    29.76F
ORTONVILLE     MOCLDY    61  59  94 SE7       29.72F
MADISON        MOCLDY    64  63  94 SE10      29.73F FOG
WILLMAR        FAIR      63  61  94 SE8       29.81S FOG
$$
MNZ033>034-036-042>043-049>051-058-059-311000-
   Central Minnesota

CITY           SKY/WX    TMP DP  RH WIND       PRES   REMARKS
ST CLOUD       CLEAR     63  60  90 SE8       29.83F
SAUK CENTRE    CLOUDY    61  61 100 SE7       29.81F
PAYNESVILLE    HVY RAIN  61  61  99 E10G16    29.81F
AITKIN         PTCLDY    63  57  82 SE6       29.84F
PINE RIVER     CLOUDY    63  63 100 SE10      29.84F
BRAINERD       PTCLDY    60  59  96 SE6       29.83F
STAPLES        CLOUDY    63  63 100 SE6       29.79F
LONG PRAIRIE   CLOUDY    61  61 100 SE13      29.81F
LITTLE FALLS   PTCLDY    61  59  94 SE8       29.82F
LITCHFIELD     PTCLDY    63  63 100 SE9       29.82F
BUFFALO        CLEAR     61  59  93 E5        29.85F
MAPLE LAKE     CLEAR     63  63  98 E5        29.85F
$$
MNZ037-044-045-052-053-311000-
   East Central Minnesota

CITY           SKY/WX    TMP DP  RH WIND       PRES   REMARKS
PRINCETON      CLEAR     63  61  94 E6        29.85F
MORA           PTCLDY    57  55  94 E6        29.88F
CAMBRIDGE      PTCLDY    63  55  77 E5        29.85F
RUSH CITY      MOCLDY    59  57  94 E3        29.88F
MOOSE LAKE     PTCLDY    59  55  88 CALM      29.87F
HINCKLEY       FAIR      59  57  94 E3        29.89F
CLOQUET        CLOUDY    59  57  94 E3        29.90F
MCGREGOR       CLOUDY    61  59  94 SE6       29.88F
$$
MNZ071>073-080-081-089-090-097-098-311000-
   Southwest Minnesota

CITY           SKY/WX    TMP DP  RH WIND       PRES   REMARKS
MONTEVIDEO     PTCLDY    61  61 100 S9        29.77F FOG
GRANITE FALLS  CLEAR     61  61 100 E9        29.78F
CANBY          MOCLDY    59  59  99 SE9       29.74F FOG
MARSHALL       PTCLDY    59  55  88 SE12      29.76F
REDWOOD FALLS  CLEAR     61  60  97 SE10      29.80F
OLIVIA         CLEAR     63  59  88 SE9       29.80F
PIPESTONE      MOCLDY    63  61  94 S12       29.77F
WINDOM         CLEAR     63  59  88 SE3       29.82F
WORTHINGTON    PTCLDY    63  61  94 S8        29.83S
JACKSON        CLEAR     63  59  88 SE7       29.84F
TRACY          CLEAR     61  60  95 S7        29.79F
SLAYTON        PTCLDY    58  58 100 CALM      29.82S
$$
MNZ065>067-074>077-082>085-091>093-311000-
   South Central Minnesota

CITY           SKY/WX    TMP DP  RH WIND       PRES   REMARKS
MANKATO        CLEAR     63  57  82 SE9       29.84F
NEW ULM        CLEAR     61  61 100 SE5       29.82F
ST JAMES       CLEAR     61  57  88 SE6       29.84F FOG
FAIRMONT       CLEAR     57  54  88 SE6       29.84F
GLENCOE        CLEAR     62  59  90 E7        29.83F
FARIBAULT      CLEAR     66  61  82 SE6       29.86F
OWATONNA       CLEAR     63  61  94 SE6       29.87F
WASECA         CLEAR     59  54  82 E5        29.88S FOG
ALBERT LEA     CLEAR     61  61 100 SE6       29.87F FOG
$$
MNZ078>079-086>088-094>096-311000-
   Southeast Minnesota

CITY           SKY/WX    TMP DP  RH WIND       PRES   REMARKS
ROCHESTER      FOG       64  62  93 SE8       29.90F VSB 1/4
RED WING       PTCLDY    63  61  94 CALM      29.87F
STANTON        CLOUDY    64  62  93 SE5       29.86S FOG
DODGE CENTER   DRZL/FOG  63  63 100 SE10      29.88F VSB 1/4
WINONA         CLOUDY    63  61  94 CALM      29.91S
AUSTIN         CLEAR     59  59 100 SE5       29.89S FOG
PRESTON        FOG       63  63 100 CALM      29.92S VSB 1/4
$$
ABBREVIATIONS USED IN REMARKS
   TC - TEMPERATURES IN CELSIUS
  WCI - WIND CHILL INDEX
   HX - HEAT INDEX
  VSB - VISIBILITY
$$


USA.gov is the U.S. government's official web portal to all federal, state and local government web resources and services.